C/2013 C2 ( Tenagra )

Japanese version
Home page
Updated on March 3, 2018

---------------------------------------------------------------------

* Profile

Discovery Date February 14, 2013
Magnitude 19.0 mag
Discoverer P. R. Holvorcem, M. Schwartz (Tenagra Observatory)

* Pictures

* Orbital Elements

Epoch 2015 Sept. 15.0 TT = JDT 2457280.5
T 2015 Aug. 30.29315 TT                                 MPCW
q   9.1309782            (2000.0)            P               Q
n   0.01531329     Peri.  308.79077     -0.91035114     +0.24124277
a  16.0604279      Node   247.52494     -0.16366953     -0.95614970
e   0.4314611      Incl.   21.33908     -0.38009616     -0.16607129
P  64.36
From 420 observations 2013 Feb. 14-2018 Feb. 13, mean residual 0".5.

* Magnitudes Graph

        m1 = 4.0 + 5 log d + 10.0 log r

---------------------------------------------------------------------

The orbital elements are published on M.P.E.C. 2018-D91.
The magnitudes graphs are made with Comet for Windows.

---------------------------------------------------------------------

Copyright(C) Seiichi Yoshida (comet@aerith.net). All rights reserved.